| time (UTC) | temp F | wind direction | speed MPH | gust MPH | rain 1hr in | rain 24hr in | rain mn in | humidity % | barometer mb |
| 20260906131553 | 57 | 269 | 1.0 | 10.0 | 0.00 | 0.00 | 0.00 | 58 | 1008.3 |
| 20260906130044 | 58 | 337 | 0.0 | 4.0 | 0.00 | 0.00 | 0.00 | 60 | 1008.2 |
| 20260906124529 | 58 | 228 | 0.0 | 3.0 | 0.00 | 0.00 | 0.00 | 58 | 1008.1 |
| 20260906123029 | 58 | 242 | 0.0 | 12.0 | 0.00 | 0.00 | 0.00 | 59 | 1007.8 |
| 20260906121532 | 57 | 223 | 0.0 | 8.0 | 0.00 | 0.00 | 0.00 | 59 | 1007.7 |
| 20260906120016 | 58 | 93 | 0.0 | 5.0 | 0.00 | 0.00 | 0.00 | 60 | 1007.5 |
| 20260906114520 | 57 | 259 | 1.0 | 7.0 | 0.00 | 0.00 | 0.00 | 59 | 1007.4 |
| 20260906113008 | 57 | 323 | 0.0 | 7.0 | 0.00 | 0.00 | 0.00 | 60 | 1007.2 |
| 20260906111505 | 57 | 259 | 0.0 | 5.0 | 0.00 | 0.00 | 0.00 | 61 | 1007.1 |
| 20260906110100 | 57 | 238 | 0.0 | 5.0 | 0.00 | 0.00 | 0.00 | 60 | 1006.9 |
| 20260906104555 | 57 | 126 | 0.0 | 6.0 | 0.00 | 0.00 | 0.00 | 61 | 1006.6 |
| 20260906103053 | 57 | 24 | 0.0 | 8.0 | 0.00 | 0.00 | 0.00 | 60 | 1006.4 |
| 20260906101547 | 56 | 252 | 0.0 | 3.0 | 0.00 | 0.00 | 0.00 | 60 | 1006.3 |
| 20260906100042 | 56 | 263 | 2.0 | 13.0 | 0.00 | 0.00 | 0.00 | 60 | 1006.0 |
| 20260906094543 | 56 | 281 | 0.0 | 2.0 | 0.00 | 0.00 | 0.00 | 60 | 1006.0 |
| 20260906093033 | 56 | 59 | 0.0 | 4.0 | 0.00 | 0.00 | 0.00 | 59 | 1005.8 |
| 20260906091529 | 56 | 261 | 0.0 | 3.0 | 0.00 | 0.00 | 0.00 | 59 | 1005.8 |
| 20260906090026 | 55 | 270 | 0.0 | 8.0 | 0.00 | 0.00 | 0.00 | 60 | 1005.7 |
| 20260906084521 | 55 | 300 | 0.0 | 4.0 | 0.00 | 0.00 | 0.00 | 59 | 1005.6 |
| 20260906083015 | 55 | 348 | 0.0 | 3.0 | 0.00 | 0.00 | 0.00 | 59 | 1005.5 |
| 20260906081514 | 54 | 263 | 0.0 | 8.0 | 0.00 | 0.00 | 0.00 | 57 | 1005.3 |
| 20260906080007 | 55 | 253 | 1.0 | 7.0 | 0.00 | 0.00 | 0.00 | 58 | 1005.1 |
| 20260906074503 | 53 | 307 | 0.0 | 4.0 | 0.00 | 0.00 | 0.00 | 51 | 1004.8 |
| 20260906073058 | 52 | 34 | 0.0 | 5.0 | 0.00 | 0.00 | 0.00 | 34 | 1004.8 |
| 20260906071555 | 51 | 41 | 0.0 | 4.0 | 0.00 | 0.00 | 0.00 | 33 | 1004.7 |
| 20260906070050 | 51 | 338 | 0.0 | 4.0 | 0.00 | 0.00 | 0.00 | 37 | 1004.6 |
| 20260906064546 | 51 | 332 | 1.0 | 11.0 | 0.00 | 0.00 | 0.00 | 38 | 1004.4 |
| 20260906063042 | 50 | 269 | 0.0 | 9.0 | 0.00 | 0.00 | 0.00 | 23 | 1004.4 |
| 20260906061545 | 50 | 308 | 0.0 | 3.0 | 0.00 | 0.00 | 0.00 | 23 | 1004.2 |
| 20260906060037 | 50 | 50 | 0.0 | 4.0 | 0.00 | 0.00 | 0.00 | 26 | 1004.2 |
| 20260906054528 | 50 | 223 | 0.0 | 5.0 | 0.00 | 0.00 | 0.00 | 14 | 1004.0 |
| 20260906053024 | 49 | 248 | 0.0 | 6.0 | 0.00 | 0.00 | 0.00 | 9 | 1004.0 |
| 20260906051519 | 49 | 252 | 0.0 | 2.0 | 0.00 | 0.00 | 0.00 | 11 | 1003.8 |
| 20260906050015 | 49 | 32 | 0.0 | 8.0 | 0.00 | 0.00 | 0.00 | 1 | 1003.7 |
| 20260906044513 | 49 | 274 | 0.0 | 3.0 | 0.00 | 0.00 | 0.00 | 1 | 1003.6 |
| 20260906043016 | 50 | 337 | 0.0 | 1.0 | 0.00 | 0.00 | 0.00 | 1 | 1003.5 |
| 20260906041503 | 50 | 295 | 0.0 | 7.0 | 0.00 | 0.00 | 0.00 | 1 | 1003.2 |
| 20260906040059 | 50 | 311 | 0.0 | 0.0 | 0.00 | 0.00 | 0.00 | 1 | 1003.1 |
| 20260906034603 | 50 | 304 | 0.0 | 0.0 | 0.00 | 0.00 | 0.00 | 1 | 1002.8 |
| 20260906033050 | 50 | 326 | 0.0 | 1.0 | 0.00 | 0.00 | 0.00 | 1 | 1002.5 |
| 20260906031544 | 50 | 64 | 0.0 | 0.0 | 0.00 | 0.00 | 0.00 | 1 | 1002.3 |
| 20260906030043 | 50 | 285 | 0.0 | 0.0 | 0.00 | 0.00 | 0.00 | 1 | 1002.2 |
| 20260906024539 | 50 | 212 | 0.0 | 1.0 | 0.00 | 0.00 | 0.00 | 1 | 1002.1 |
| 20260906023033 | 50 | 265 | 0.0 | 0.0 | 0.00 | 0.00 | 0.00 | 1 | 1001.9 |
| 20260906021537 | 50 | 262 | 0.0 | 0.0 | 0.00 | 0.00 | 0.00 | 1 | 1001.7 |
| 20260906020024 | 50 | 67 | 0.0 | 0.0 | 0.00 | 0.00 | 0.00 | 1 | 1001.5 |
| 20260906014519 | 50 | 30 | 0.0 | 0.0 | 0.00 | 0.00 | 0.00 | 1 | 1001.4 |
| 20260906013015 | 50 | 355 | 0.0 | 0.0 | 0.00 | 0.00 | 0.00 | 1 | 1001.3 |
| 20260906011511 | 50 | 300 | 0.0 | 0.0 | 0.00 | 0.00 | 0.00 | 1 | 1001.1 |
| 20260906010006 | 50 | 298 | 0.0 | 0.0 | 0.00 | 0.00 | 0.00 | 1 | 1001.0 |
| 20260906004502 | 50 | 300 | 0.0 | 0.0 | 0.00 | 0.00 | 0.00 | 1 | 1000.9 |
| 20260906003058 | 50 | 307 | 0.0 | 1.0 | 0.00 | 0.00 | 0.00 | 1 | 1000.7 |
| 20260906001602 | 50 | 32 | 0.0 | 0.0 | 0.00 | 0.00 | 0.00 | 1 | 1000.6 |
| 20260906000049 | 49 | 32 | 0.0 | 0.0 | 0.00 | 0.00 | 0.00 | 1 | 1000.5 |
| 20260905234545 | 49 | 223 | 0.0 | 0.0 | 0.00 | 0.00 | 0.00 | 1 | 1000.2 |
| 20260905233041 | 49 | 223 | 0.0 | 0.0 | 0.00 | 0.00 | 0.00 | 1 | 1000.1 |
| 20260905231535 | 49 | 223 | 0.0 | 0.0 | 0.00 | 0.00 | 0.00 | 1 | 1000.1 |
| 20260905230034 | 49 | 223 | 0.0 | 0.0 | 0.00 | 0.00 | 0.00 | 1 | 1000.0 |
| 20260905224526 | 50 | 224 | 0.0 | 0.0 | 0.00 | 0.00 | 0.00 | 1 | 999.9 |
| 20260905223039 | 50 | 224 | 0.0 | 0.0 | 0.00 | 0.00 | 0.00 | 1 | 999.8 |
| 20260905221521 | 50 | 24 | 0.0 | 0.0 | 0.00 | 0.00 | 0.00 | 1 | 999.7 |
| 20260905220013 | 50 | 32 | 0.0 | 0.0 | 0.00 | 0.00 | 0.00 | 1 | 999.6 |
| 20260905214512 | 51 | 32 | 0.0 | 0.0 | 0.00 | 0.00 | 0.00 | 1 | 999.5 |
| 20260905213004 | 51 | 32 | 0.0 | 0.0 | 0.00 | 0.00 | 0.00 | 1 | 999.4 |
| 20260905211609 | 52 | 32 | 0.0 | 0.0 | 0.00 | 0.00 | 0.00 | 1 | 999.3 |
| 20260905210115 | 52 | 32 | 0.0 | 0.0 | 0.00 | 0.00 | 0.00 | 1 | 999.1 |
| 20260905204550 | 52 | 32 | 0.0 | 0.0 | 0.00 | 0.00 | 0.00 | 1 | 998.9 |
| 20260905203047 | 52 | 32 | 0.0 | 0.0 | 0.00 | 0.00 | 0.00 | 1 | 998.8 |
| 20260905201542 | 52 | 32 | 0.0 | 0.0 | 0.00 | 0.00 | 0.00 | 1 | 998.6 |
| 20260905200106 | 52 | 32 | 0.0 | 0.0 | 0.00 | 0.00 | 0.00 | 1 | 998.5 |
| 20260905194534 | 52 | 32 | 0.0 | 0.0 | 0.00 | 0.00 | 0.00 | 1 | 998.5 |
| 20260905193036 | 52 | 32 | 0.0 | 0.0 | 0.00 | 0.00 | 0.00 | 1 | 998.3 |
| 20260905191526 | 53 | 32 | 0.0 | 0.0 | 0.00 | 0.00 | 0.00 | 1 | 998.2 |
| 20260905190025 | 53 | 32 | 0.0 | 0.0 | 0.00 | 0.00 | 0.00 | 1 | 998.2 |
| 20260905184530 | 54 | 32 | 0.0 | 0.0 | 0.00 | 0.01 | 0.00 | 1 | 998.2 |
| 20260905183011 | 54 | 32 | 0.0 | 0.0 | 0.00 | 0.01 | 0.00 | 1 | 998.1 |
| 20260905181508 | 54 | 32 | 0.0 | 0.0 | 0.00 | 0.01 | 0.00 | 1 | 998.0 |
| 20260905180008 | 54 | 32 | 0.0 | 0.0 | 0.00 | 0.01 | 0.00 | 1 | 998.0 |
| 20260905174608 | 54 | 32 | 0.0 | 0.0 | 0.00 | 0.01 | 0.00 | 1 | 997.8 |
| 20260905173055 | 55 | 32 | 0.0 | 0.0 | 0.00 | 0.01 | 0.00 | 1 | 997.8 |
| 20260905171550 | 55 | 32 | 0.0 | 0.0 | 0.00 | 0.01 | 0.00 | 1 | 997.7 |
| 20260905170046 | 55 | 32 | 0.0 | 0.0 | 0.00 | 0.01 | 0.00 | 1 | 997.5 |
| 20260905164544 | 55 | 32 | 0.0 | 0.0 | 0.00 | 0.01 | 0.00 | 1 | 997.3 |
| 20260905163038 | 56 | 32 | 0.0 | 0.0 | 0.00 | 0.01 | 0.00 | 1 | 997.2 |
| 20260905161532 | 56 | 32 | 0.0 | 0.0 | 0.00 | 0.01 | 0.00 | 1 | 997.0 |
| 20260905160028 | 57 | 32 | 0.0 | 0.0 | 0.00 | 0.01 | 0.00 | 1 | 996.8 |
| 20260905154527 | 57 | 32 | 0.0 | 0.0 | 0.00 | 0.01 | 0.00 | 1 | 996.8 |
| 20260905153027 | 57 | 32 | 0.0 | 0.0 | 0.00 | 0.01 | 0.00 | 5 | 996.6 |
| 20260905151516 | 58 | 32 | 0.0 | 0.0 | 0.00 | 0.01 | 0.00 | 19 | 996.6 |
| 20260905150019 | 58 | 32 | 0.0 | 0.0 | 0.00 | 0.01 | 0.00 | 33 | 996.5 |
| 20260905144512 | 59 | 32 | 0.0 | 2.0 | 0.00 | 0.01 | 0.00 | 41 | 996.2 |
| 20260905143002 | 59 | 312 | 0.0 | 1.0 | 0.00 | 0.01 | 0.00 | 19 | 996.0 |
| 20260905141558 | 60 | 311 | 0.0 | 0.0 | 0.00 | 0.01 | 0.00 | 29 | 995.9 |
| 20260905140054 | 60 | 279 | 0.0 | 0.0 | 0.00 | 0.01 | 0.00 | 40 | 995.8 |
| 20260905134551 | 61 | 263 | 0.0 | 4.0 | 0.00 | 0.08 | 0.00 | 40 | 995.7 |
| 20260905133044 | 61 | 295 | 0.0 | 4.0 | 0.00 | 0.08 | 0.00 | 36 | 995.8 |